AXB3514 VOMM-VAAH

Flight info

Callsign AXB3514
Flight time N/A
Altitude 36000
Route MMV W20 HIA L518 MONPI DCT BODAR BODAR1B
Aircraft B38M/M-SDE1FGHILORVWXY/HB1

Departure

Time 2026-04-24 11:42
Airport Chennai International Airport (VOMM)

Arrival

Time N/A
Airport Sardar Vallabh Patel International Airport (VAAH)
Time Latitude Longitude Altitude Speed Heading
2026-04-24 11:08 12.98219 80.15993 53 ft 0 kts 159°
2026-04-24 11:32 12.98230 80.15988 52 ft 2 kts 158°
2026-04-24 11:32 12.98244 80.15983 51 ft 2 kts 167°
2026-04-24 11:32 12.98258 80.15981 51 ft 2 kts 181°
2026-04-24 11:32 12.98271 80.15983 50 ft 1 kts 193°
2026-04-24 11:33 12.98285 80.15987 50 ft 2 kts 206°
2026-04-24 11:33 12.98297 80.15995 50 ft 2 kts 219°
2026-04-24 11:33 12.98307 80.16005 50 ft 2 kts 231°
2026-04-24 11:33 12.98315 80.16016 50 ft 2 kts 243°
2026-04-24 11:34 12.98317 80.16021 50 ft 0 kts 248°
2026-04-24 11:35 12.98317 80.16022 50 ft 0 kts 248°
2026-04-24 11:35 12.98319 80.16024 49 ft 0 kts 252°
2026-04-24 11:35 12.98323 80.16035 50 ft 0 kts 249°
2026-04-24 11:37 12.98322 80.16034 50 ft 0 kts 249°
2026-04-24 11:37 12.98321 80.16030 50 ft 0 kts 248°
2026-04-24 11:37 12.98318 80.16022 50 ft 1 kts 247°
2026-04-24 11:38 12.98315 80.16015 50 ft 1 kts 247°
2026-04-24 11:38 12.98307 80.15994 50 ft 5 kts 248°
2026-04-24 11:38 12.98290 80.15950 50 ft 6 kts 250°
2026-04-24 11:38 12.98302 80.15870 49 ft 16 kts 286°
2026-04-24 11:39 12.98335 80.15748 49 ft 16 kts 285°
2026-04-24 11:39 12.98362 80.15649 48 ft 12 kts 285°
2026-04-24 11:39 12.98382 80.15579 48 ft 8 kts 285°
2026-04-24 11:39 12.98394 80.15533 47 ft 5 kts 285°
2026-04-24 11:40 12.98402 80.15503 47 ft 3 kts 285°
2026-04-24 11:40 12.98408 80.15482 47 ft 2 kts 289°
2026-04-24 11:40 12.98418 80.15456 47 ft 5 kts 291°
2026-04-24 11:40 12.98452 80.15424 46 ft 1 kts
2026-04-24 11:41 12.98473 80.15455 46 ft 8 kts 66°
2026-04-24 11:41 12.98523 80.15587 45 ft 50 kts 71°
2026-04-24 11:41 12.98743 80.16146 44 ft 120 kts 68°
2026-04-24 11:41 12.99101 80.17083 48 ft 171 kts 75°
2026-04-24 11:42 12.99528 80.18283 435 ft 184 kts 73°
2026-04-24 11:42 13.01751 80.21355 1582 ft 205 kts
2026-04-24 11:43 13.02924 80.21036 2293 ft 176 kts 324°
2026-04-24 11:43 13.03656 80.20199 2344 ft 186 kts 295°
2026-04-24 11:43 13.04007 80.18713 2453 ft 196 kts 266°
2026-04-24 11:43 13.03939 80.17956 2795 ft 186 kts 256°
2026-04-24 11:44 13.03274 80.16178 3135 ft 206 kts 236°
2026-04-24 11:44 13.02422 80.14980 3425 ft 210 kts 225°
2026-04-24 11:44 13.01753 80.14280 3837 ft 201 kts 220°